contact:dominique.lefevre@mio.osupytheas.fr, maurice.libes@osupytheas.fr, didier.mallarino@osupytheas.fr
Project:EMSO http://www.emso-fr.org/EMSO-France
Depth: 2436.0 m
Title:EMSO Ligure Ouest : Data MII capteur CSTAR
DateTime,Latitude,Longitude,Instrument_Serial,Reference_Counts,Signal_Counts,Corrected_Signal_raw_counts,Calculated_Beam_c_inverse_meters,Internal_thermistor_counts
DateTime,Latitude,Longitude,Instrument_Serial,Reference_Counts,Signal_Counts,Corrected_Signal_raw_counts,Calculated_Beam_c_inverse_meters,Internal_thermistor_counts
2020-05-01T00:02:28,42.805,6.029,CST-1368DR,6389,8952,15173,0.115,551
2020-05-01T00:05:30,42.805,6.029,CST-1368DR,6389,8952,15172,0.115,551
2020-05-01T00:08:32,42.805,6.029,CST-1368DR,6389,8951,15170,0.116,551
2020-05-01T00:11:34,42.805,6.029,CST-1368DR,6389,8952,15173,0.115,551
2020-05-01T00:14:35,42.805,6.029,CST-1368DR,6389,8950,15170,0.116,551
2020-05-01T00:17:37,42.805,6.029,CST-1368DR,6389,8953,15174,0.115,551
2020-05-01T00:20:39,42.805,6.029,CST-1368DR,6389,8952,15173,0.115,550
2020-05-01T00:23:41,42.805,6.029,CST-1368DR,6389,8951,15171,0.116,551
2020-05-01T00:26:42,42.805,6.029,CST-1368DR,6389,8949,15168,0.116,551
2020-05-01T00:29:44,42.805,6.029,CST-1368DR,6389,8952,15173,0.115,551
2020-05-01T00:32:46,42.805,6.029,CST-1368DR,6389,8953,15174,0.115,551
2020-05-01T00:35:47,42.805,6.029,CST-1368DR,6389,8951,15172,0.115,551
2020-05-01T00:38:49,42.805,6.029,CST-1368DR,6389,8951,15171,0.116,551
2020-05-01T00:41:51,42.805,6.029,CST-1368DR,6389,8951,15170,0.116,551
2020-05-01T00:44:53,42.805,6.029,CST-1368DR,6389,8947,15164,0.117,551
2020-05-01T00:47:54,42.805,6.029,CST-1368DR,6389,8951,15171,0.116,551
2020-05-01T00:50:56,42.805,6.029,CST-1368DR,6389,8952,15172,0.115,551
2020-05-01T00:53:58,42.805,6.029,CST-1368DR,6389,8954,15176,0.114,551
2020-05-01T00:56:59,42.805,6.029,CST-1368DR,6389,8952,15172,0.115,551
2020-05-01T01:00:01,42.805,6.029,CST-1368DR,6389,8953,15174,0.115,551
2020-05-01T01:03:03,42.805,6.029,CST-1368DR,6389,8951,15170,0.116,551
2020-05-01T01:06:04,42.805,6.029,CST-1368DR,6389,8954,15176,0.114,551
2020-05-01T01:09:06,42.805,6.029,CST-1368DR,6389,8951,15171,0.116,551
2020-05-01T01:12:08,42.805,6.029,CST-1368DR,6389,8953,15174,0.115,551
2020-05-01T01:15:09,42.805,6.029,CST-1368DR,6389,8954,15175,0.115,551
2020-05-01T01:18:11,42.805,6.029,CST-1368DR,6389,8954,15176,0.114,551
2020-05-01T01:21:13,42.805,6.029,CST-1368DR,6389,8951,15171,0.116,551
2020-05-01T01:24:15,42.805,6.029,CST-1368DR,6389,8954,15175,0.115,551
2020-05-01T01:27:16,42.805,6.029,CST-1368DR,6389,8954,15176,0.114,551
2020-05-01T01:30:18,42.805,6.029,CST-1368DR,6389,8951,15170,0.116,551
2020-05-01T01:33:20,42.805,6.029,CST-1368DR,6389,8950,15169,0.116,551
2020-05-01T01:36:21,42.805,6.029,CST-1368DR,6389,8950,15170,0.116,551
2020-05-01T01:39:23,42.805,6.029,CST-1368DR,6389,8953,15174,0.115,550
2020-05-01T01:42:25,42.805,6.029,CST-1368DR,6389,8954,15175,0.115,551
2020-05-01T01:45:26,42.805,6.029,CST-1368DR,6389,8952,15173,0.115,551
2020-05-01T01:48:28,42.805,6.029,CST-1368DR,6389,8952,15172,0.115,551
2020-05-01T01:51:30,42.805,6.029,CST-1368DR,6389,8951,15171,0.116,551
2020-05-01T01:54:31,42.805,6.029,CST-1368DR,6389,8952,15172,0.115,551
2020-05-01T01:57:33,42.805,6.029,CST-1368DR,6389,8950,15169,0.116,551
2020-05-01T02:00:35,42.805,6.029,CST-1368DR,6389,8952,15172,0.115,551
2020-05-01T02:03:36,42.805,6.029,CST-1368DR,6389,8952,15173,0.115,551
2020-05-01T02:06:38,42.805,6.029,CST-1368DR,6389,8951,15171,0.116,551
2020-05-01T02:09:40,42.805,6.029,CST-1368DR,6389,8952,15173,0.115,551
2020-05-01T02:12:41,42.805,6.029,CST-1368DR,6389,8952,15172,0.115,551
2020-05-01T02:15:43,42.805,6.029,CST-1368DR,6389,8951,15171,0.116,551
2020-05-01T02:18:45,42.805,6.029,CST-1368DR,6389,8952,15173,0.115,551
2020-05-01T02:21:47,42.805,6.029,CST-1368DR,6389,8951,15171,0.116,551
2020-05-01T02:24:48,42.805,6.029,CST-1368DR,6389,8949,15168,0.116,551
2020-05-01T02:27:50,42.805,6.029,CST-1368DR,6389,8951,15172,0.115,551
2020-05-01T02:30:52,42.805,6.029,CST-1368DR,6389,8951,15171,0.116,551
2020-05-01T02:33:53,42.805,6.029,CST-1368DR,6389,8952,15173,0.115,551
2020-05-01T02:36:55,42.805,6.029,CST-1368DR,6389,8952,15172,0.115,551
2020-05-01T02:39:57,42.805,6.029,CST-1368DR,6389,8947,15165,0.117,551
2020-05-01T02:42:59,42.805,6.029,CST-1368DR,6389,8952,15172,0.115,551
2020-05-01T02:46:00,42.805,6.029,CST-1368DR,6389,8950,15170,0.116,551
2020-05-01T02:49:02,42.805,6.029,CST-1368DR,6389,8953,15174,0.115,551
2020-05-01T02:52:04,42.805,6.029,CST-1368DR,6389,8951,15172,0.115,551
2020-05-01T02:55:05,42.805,6.029,CST-1368DR,6389,8951,15172,0.115,551
2020-05-01T02:58:07,42.805,6.029,CST-1368DR,6388,8949,15170,0.116,551
2020-05-01T03:01:09,42.805,6.029,CST-1368DR,6388,8948,15167,0.117,551
2020-05-01T03:04:10,42.805,6.029,CST-1368DR,6389,8950,15169,0.116,551
2020-05-01T03:07:12,42.805,6.029,CST-1368DR,6389,8949,15168,0.116,551
2020-05-01T03:10:14,42.805,6.029,CST-1368DR,6389,8950,15169,0.116,551
2020-05-01T03:13:16,42.805,6.029,CST-1368DR,6389,8952,15173,0.115,551
2020-05-01T03:16:17,42.805,6.029,CST-1368DR,6388,8950,15172,0.115,551
2020-05-01T03:19:19,42.805,6.029,CST-1368DR,6388,8949,15170,0.116,551
2020-05-01T03:22:21,42.805,6.029,CST-1368DR,6389,8952,15172,0.115,551
2020-05-01T03:25:22,42.805,6.029,CST-1368DR,6389,8950,15170,0.116,551
2020-05-01T03:28:24,42.805,6.029,CST-1368DR,6388,8949,15170,0.116,551
2020-05-01T03:31:26,42.805,6.029,CST-1368DR,6389,8953,15174,0.115,551
2020-05-01T03:34:27,42.805,6.029,CST-1368DR,6389,8953,15174,0.115,551
2020-05-01T03:37:29,42.805,6.029,CST-1368DR,6389,8953,15174,0.115,551
2020-05-01T03:40:31,42.805,6.029,CST-1368DR,6389,8953,15175,0.115,551
2020-05-01T03:43:32,42.805,6.029,CST-1368DR,6388,8951,15174,0.115,551
2020-05-01T03:46:34,42.805,6.029,CST-1368DR,6388,8953,15176,0.114,551
2020-05-01T03:49:36,42.805,6.029,CST-1368DR,6388,8952,15175,0.115,551
2020-05-01T03:52:37,42.805,6.029,CST-1368DR,6388,8953,15176,0.114,550
2020-05-01T03:55:39,42.805,6.029,CST-1368DR,6388,8953,15176,0.114,550
2020-05-01T03:58:41,42.805,6.029,CST-1368DR,6388,8952,15176,0.114,551
2020-05-01T04:01:43,42.805,6.029,CST-1368DR,6388,8950,15172,0.115,551
2020-05-01T04:04:44,42.805,6.029,CST-1368DR,6388,8949,15170,0.116,551
2020-05-01T04:07:46,42.805,6.029,CST-1368DR,6388,8953,15177,0.114,551
2020-05-01T04:10:48,42.805,6.029,CST-1368DR,6388,8952,15175,0.115,551
2020-05-01T04:13:49,42.805,6.029,CST-1368DR,6388,8953,15176,0.114,551
2020-05-01T04:16:51,42.805,6.029,CST-1368DR,6388,8953,15177,0.114,551
2020-05-01T04:19:53,42.805,6.029,CST-1368DR,6388,8951,15174,0.115,551
2020-05-01T04:22:55,42.805,6.029,CST-1368DR,6388,8951,15173,0.115,551
2020-05-01T04:25:56,42.805,6.029,CST-1368DR,6388,8953,15176,0.114,551
2020-05-01T04:28:58,42.805,6.029,CST-1368DR,6388,8948,15169,0.116,551
2020-05-01T04:32:00,42.805,6.029,CST-1368DR,6388,8951,15173,0.115,551
2020-05-01T04:35:01,42.805,6.029,CST-1368DR,6388,8952,15175,0.115,551
2020-05-01T04:38:03,42.805,6.029,CST-1368DR,6388,8952,15175,0.115,551
2020-05-01T04:41:05,42.805,6.029,CST-1368DR,6388,8951,15174,0.115,551
2020-05-01T04:44:06,42.805,6.029,CST-1368DR,6388,8952,15174,0.115,551
2020-05-01T04:47:08,42.805,6.029,CST-1368DR,6388,8951,15173,0.115,551
2020-05-01T04:50:10,42.805,6.029,CST-1368DR,6388,8951,15173,0.115,551
2020-05-01T04:53:12,42.805,6.029,CST-1368DR,6388,8952,15175,0.115,551
2020-05-01T04:56:13,42.805,6.029,CST-1368DR,6388,8952,15174,0.115,551
2020-05-01T04:59:15,42.805,6.029,CST-1368DR,6388,8952,15174,0.115,551
2020-05-01T05:02:17,42.805,6.029,CST-1368DR,6388,8951,15174,0.115,551
2020-05-01T05:05:18,42.805,6.029,CST-1368DR,6388,8952,15176,0.114,551
2020-05-01T05:08:20,42.805,6.029,CST-1368DR,6388,8952,15175,0.115,551
2020-05-01T05:11:22,42.805,6.029,CST-1368DR,6388,8950,15172,0.115,551
2020-05-01T05:14:23,42.805,6.029,CST-1368DR,6388,8952,15174,0.115,551
2020-05-01T05:17:25,42.805,6.029,CST-1368DR,6388,8951,15173,0.115,551
2020-05-01T05:20:27,42.805,6.029,CST-1368DR,6388,8951,15174,0.115,551
2020-05-01T05:23:29,42.805,6.029,CST-1368DR,6388,8951,15173,0.115,551
2020-05-01T05:26:31,42.805,6.029,CST-1368DR,6388,8940,15155,0.120,551
2020-05-01T05:29:32,42.805,6.029,CST-1368DR,6388,8951,15173,0.115,550
2020-05-01T05:32:34,42.805,6.029,CST-1368DR,6388,8951,15174,0.115,551
2020-05-01T05:35:36,42.805,6.029,CST-1368DR,6388,8950,15172,0.115,551
2020-05-01T05:38:37,42.805,6.029,CST-1368DR,6388,8950,15172,0.115,551
2020-05-01T05:41:39,42.805,6.029,CST-1368DR,6388,8949,15170,0.116,551
2020-05-01T05:44:41,42.805,6.029,CST-1368DR,6388,8952,15174,0.115,551
2020-05-01T05:47:42,42.805,6.029,CST-1368DR,6388,8952,15175,0.115,551
2020-05-01T05:50:44,42.805,6.029,CST-1368DR,6388,8950,15171,0.116,551
2020-05-01T05:53:46,42.805,6.029,CST-1368DR,6388,8951,15173,0.115,551
2020-05-01T05:56:48,42.805,6.029,CST-1368DR,6388,8951,15174,0.115,551
2020-05-01T05:59:49,42.805,6.029,CST-1368DR,6388,8950,15171,0.116,551
2020-05-01T06:02:51,42.805,6.029,CST-1368DR,6388,8951,15173,0.115,551
2020-05-01T06:05:53,42.805,6.029,CST-1368DR,6388,8951,15173,0.115,551
2020-05-01T06:08:54,42.805,6.029,CST-1368DR,6388,8947,15167,0.117,551
2020-05-01T06:11:56,42.805,6.029,CST-1368DR,6388,8951,15173,0.115,551
2020-05-01T06:14:58,42.805,6.029,CST-1368DR,6388,8950,15171,0.116,551
2020-05-01T06:17:59,42.805,6.029,CST-1368DR,6388,8951,15173,0.115,551
2020-05-01T06:21:01,42.805,6.029,CST-1368DR,6388,8951,15173,0.115,551
2020-05-01T06:24:03,42.805,6.029,CST-1368DR,6388,8950,15171,0.116,551
2020-05-01T06:27:04,42.805,6.029,CST-1368DR,6388,8951,15173,0.115,551
2020-05-01T06:30:06,42.805,6.029,CST-1368DR,6388,8953,15176,0.114,551
2020-05-01T06:33:08,42.805,6.029,CST-1368DR,6388,8949,15170,0.116,551
2020-05-01T06:36:09,42.805,6.029,CST-1368DR,6388,8952,15175,0.115,551
2020-05-01T06:39:11,42.805,6.029,CST-1368DR,6388,8950,15172,0.115,551
2020-05-01T06:42:13,42.805,6.029,CST-1368DR,6388,8952,15175,0.115,551
2020-05-01T06:45:14,42.805,6.029,CST-1368DR,6388,8951,15173,0.115,551
2020-05-01T06:48:16,42.805,6.029,CST-1368DR,6388,8951,15173,0.115,551
2020-05-01T06:51:18,42.805,6.029,CST-1368DR,6388,8952,15175,0.115,551
2020-05-01T06:54:20,42.805,6.029,CST-1368DR,6388,8952,15174,0.115,550
2020-05-01T06:57:22,42.805,6.029,CST-1368DR,6388,8952,15175,0.115,551
2020-05-01T07:00:23,42.805,6.029,CST-1368DR,6388,8952,15174,0.115,551
2020-05-01T07:03:25,42.805,6.029,CST-1368DR,6388,8952,15175,0.115,551
2020-05-01T07:06:27,42.805,6.029,CST-1368DR,6388,8949,15169,0.116,551
2020-05-01T07:09:28,42.805,6.029,CST-1368DR,6388,8948,15169,0.116,551
2020-05-01T07:12:30,42.805,6.029,CST-1368DR,6388,8950,15172,0.115,551
2020-05-01T07:15:32,42.805,6.029,CST-1368DR,6388,8950,15171,0.116,551
2020-05-01T07:18:34,42.805,6.029,CST-1368DR,6388,8949,15170,0.116,551
2020-05-01T07:21:35,42.805,6.029,CST-1368DR,6388,8949,15170,0.116,551
2020-05-01T07:24:37,42.805,6.029,CST-1368DR,6388,8950,15172,0.115,551
2020-05-01T07:27:39,42.805,6.029,CST-1368DR,6388,8948,15168,0.116,551
2020-05-01T07:30:40,42.805,6.029,CST-1368DR,6388,8951,15174,0.115,551
2020-05-01T07:33:42,42.805,6.029,CST-1368DR,6388,8951,15173,0.115,550
2020-05-01T07:36:44,42.805,6.029,CST-1368DR,6388,8951,15173,0.115,551
2020-05-01T07:39:45,42.805,6.029,CST-1368DR,6388,8951,15174,0.115,551
2020-05-01T07:42:47,42.805,6.029,CST-1368DR,6388,8951,15174,0.115,551
2020-05-01T07:45:49,42.805,6.029,CST-1368DR,6388,8952,15174,0.115,551
2020-05-01T07:48:51,42.805,6.029,CST-1368DR,6388,8950,15171,0.116,551
2020-05-01T07:51:52,42.805,6.029,CST-1368DR,6388,8951,15173,0.115,551
2020-05-01T07:54:54,42.805,6.029,CST-1368DR,6388,8952,15175,0.115,551
2020-05-01T07:57:56,42.805,6.029,CST-1368DR,6388,8951,15174,0.115,551
2020-05-01T08:00:58,42.805,6.029,CST-1368DR,6388,8951,15173,0.115,551
2020-05-01T08:03:59,42.805,6.029,CST-1368DR,6388,8951,15174,0.115,551
2020-05-01T08:07:01,42.805,6.029,CST-1368DR,6387,8948,15171,0.116,551
2020-05-01T08:10:03,42.805,6.029,CST-1368DR,6388,8952,15175,0.115,551
2020-05-01T08:13:04,42.805,6.029,CST-1368DR,6387,8952,15178,0.114,551
2020-05-01T08:16:06,42.805,6.029,CST-1368DR,6387,8950,15173,0.115,551
2020-05-01T08:19:08,42.805,6.029,CST-1368DR,6387,8952,15177,0.114,551
2020-05-01T08:22:09,42.805,6.029,CST-1368DR,6387,8952,15177,0.114,551
2020-05-01T08:25:11,42.805,6.029,CST-1368DR,6388,8951,15174,0.115,551
2020-05-01T08:28:13,42.805,6.029,CST-1368DR,6388,8952,15175,0.115,551
2020-05-01T08:31:15,42.805,6.029,CST-1368DR,6388,8951,15173,0.115,551
2020-05-01T08:34:16,42.805,6.029,CST-1368DR,6387,8951,15176,0.114,551
2020-05-01T08:37:18,42.805,6.029,CST-1368DR,6388,8953,15176,0.114,551
2020-05-01T08:40:20,42.805,6.029,CST-1368DR,6388,8952,15176,0.114,551
2020-05-01T08:43:21,42.805,6.029,CST-1368DR,6387,8952,15177,0.114,551
2020-05-01T08:46:23,42.805,6.029,CST-1368DR,6387,8951,15175,0.115,551
2020-05-01T08:49:25,42.805,6.029,CST-1368DR,6387,8949,15172,0.115,550
2020-05-01T08:52:26,42.805,6.029,CST-1368DR,6387,8952,15177,0.114,551
2020-05-01T08:55:28,42.805,6.029,CST-1368DR,6387,8948,15171,0.116,551
2020-05-01T08:58:30,42.805,6.029,CST-1368DR,6387,8951,15175,0.115,551
2020-05-01T09:01:31,42.805,6.029,CST-1368DR,6387,8951,15175,0.115,551
2020-05-01T09:04:33,42.805,6.029,CST-1368DR,6387,8951,15175,0.115,551
2020-05-01T09:07:35,42.805,6.029,CST-1368DR,6387,8951,15176,0.114,551
2020-05-01T09:10:36,42.805,6.029,CST-1368DR,6387,8951,15175,0.115,551
2020-05-01T09:13:38,42.805,6.029,CST-1368DR,6387,8951,15175,0.115,551
2020-05-01T09:16:40,42.805,6.029,CST-1368DR,6387,8951,15175,0.115,551
2020-05-01T09:19:41,42.805,6.029,CST-1368DR,6387,8949,15173,0.115,551
2020-05-01T09:22:43,42.805,6.029,CST-1368DR,6387,8952,15177,0.114,551
2020-05-01T09:25:45,42.805,6.029,CST-1368DR,6387,8952,15177,0.114,551
2020-05-01T09:28:46,42.805,6.029,CST-1368DR,6387,8952,15177,0.114,551
2020-05-01T09:31:48,42.805,6.029,CST-1368DR,6387,8952,15177,0.114,551
2020-05-01T09:34:50,42.805,6.029,CST-1368DR,6387,8951,15175,0.115,551
2020-05-01T09:37:51,42.805,6.029,CST-1368DR,6387,8951,15176,0.114,551
2020-05-01T09:40:53,42.805,6.029,CST-1368DR,6387,8951,15176,0.114,551
2020-05-01T09:43:55,42.805,6.029,CST-1368DR,6387,8951,15175,0.115,551
2020-05-01T09:46:57,42.805,6.029,CST-1368DR,6387,8950,15174,0.115,551
2020-05-01T09:49:58,42.805,6.029,CST-1368DR,6387,8951,15176,0.114,551
2020-05-01T09:53:00,42.805,6.029,CST-1368DR,6387,8951,15176,0.114,551
2020-05-01T09:56:02,42.805,6.029,CST-1368DR,6387,8951,15176,0.114,551
2020-05-01T09:59:03,42.805,6.029,CST-1368DR,6387,8951,15176,0.114,551
2020-05-01T10:02:05,42.805,6.029,CST-1368DR,6387,8952,15177,0.114,551
2020-05-01T10:05:07,42.805,6.029,CST-1368DR,6387,8952,15177,0.114,551
2020-05-01T10:08:08,42.805,6.029,CST-1368DR,6387,8952,15177,0.114,551
2020-05-01T10:11:10,42.805,6.029,CST-1368DR,6387,8951,15176,0.114,551
2020-05-01T10:14:12,42.805,6.029,CST-1368DR,6387,8952,15177,0.114,551
2020-05-01T10:17:14,42.805,6.029,CST-1368DR,6387,8953,15179,0.114,551
2020-05-01T10:20:15,42.805,6.029,CST-1368DR,6387,8949,15172,0.115,551
2020-05-01T10:23:17,42.805,6.029,CST-1368DR,6387,8951,15176,0.114,551
2020-05-01T10:26:19,42.805,6.029,CST-1368DR,6387,8952,15178,0.114,551
2020-05-01T10:29:20,42.805,6.029,CST-1368DR,6387,8953,15178,0.114,551
2020-05-01T10:32:22,42.805,6.029,CST-1368DR,6387,8953,15179,0.114,551
2020-05-01T10:35:24,42.805,6.029,CST-1368DR,6387,8953,15178,0.114,551
2020-05-01T10:38:25,42.805,6.029,CST-1368DR,6387,8954,15180,0.113,551
2020-05-01T10:41:27,42.805,6.029,CST-1368DR,6387,8952,15177,0.114,551
2020-05-01T10:44:29,42.805,6.029,CST-1368DR,6387,8953,15179,0.114,551
2020-05-01T10:47:30,42.805,6.029,CST-1368DR,6387,8953,15179,0.114,551
2020-05-01T10:50:32,42.805,6.029,CST-1368DR,6387,8953,15178,0.114,551
2020-05-01T10:53:34,42.805,6.029,CST-1368DR,6387,8952,15177,0.114,551
2020-05-01T10:56:36,42.805,6.029,CST-1368DR,6387,8951,15175,0.115,551
2020-05-01T10:59:37,42.805,6.029,CST-1368DR,6387,8953,15178,0.114,551
2020-05-01T11:02:39,42.805,6.029,CST-1368DR,6387,8954,15180,0.113,551
2020-05-01T11:05:41,42.805,6.029,CST-1368DR,6387,8953,15179,0.114,551
2020-05-01T11:08:42,42.805,6.029,CST-1368DR,6387,8954,15180,0.113,551
2020-05-01T11:11:44,42.805,6.029,CST-1368DR,6387,8954,15180,0.113,551
2020-05-01T11:14:46,42.805,6.029,CST-1368DR,6387,8954,15180,0.113,551
2020-05-01T11:17:48,42.805,6.029,CST-1368DR,6387,8954,15180,0.113,551
2020-05-01T11:20:49,42.805,6.029,CST-1368DR,6387,8951,15176,0.114,551
2020-05-01T11:23:51,42.805,6.029,CST-1368DR,6387,8954,15180,0.113,551
2020-05-01T11:26:53,42.805,6.029,CST-1368DR,6387,8954,15180,0.113,551
2020-05-01T11:29:55,42.805,6.029,CST-1368DR,6387,8952,15178,0.114,551
2020-05-01T11:32:56,42.805,6.029,CST-1368DR,6387,8953,15179,0.114,551
2020-05-01T11:35:58,42.805,6.029,CST-1368DR,6387,8953,15179,0.114,551
2020-05-01T11:39:00,42.805,6.029,CST-1368DR,6387,8953,15179,0.114,551
2020-05-01T11:42:01,42.805,6.029,CST-1368DR,6387,8952,15177,0.114,551
2020-05-01T11:45:03,42.805,6.029,CST-1368DR,6387,8953,15178,0.114,551
2020-05-01T11:48:05,42.805,6.029,CST-1368DR,6387,8953,15179,0.114,551
2020-05-01T11:51:06,42.805,6.029,CST-1368DR,6387,8953,15179,0.114,551
2020-05-01T11:54:08,42.805,6.029,CST-1368DR,6387,8954,15180,0.113,551
2020-05-01T11:57:10,42.805,6.029,CST-1368DR,6387,8951,15176,0.114,551
2020-05-01T12:00:11,42.805,6.029,CST-1368DR,6387,8953,15179,0.114,551
2020-05-01T12:03:13,42.805,6.029,CST-1368DR,6387,8954,15180,0.113,551
2020-05-01T12:06:15,42.805,6.029,CST-1368DR,6387,8953,15179,0.114,551
2020-05-01T12:09:16,42.805,6.029,CST-1368DR,6387,8954,15180,0.113,551
2020-05-01T12:12:18,42.805,6.029,CST-1368DR,6387,8952,15177,0.114,551
2020-05-01T12:15:20,42.805,6.029,CST-1368DR,6387,8953,15179,0.114,551
2020-05-01T12:18:21,42.805,6.029,CST-1368DR,6387,8952,15177,0.114,551
2020-05-01T12:21:23,42.805,6.029,CST-1368DR,6387,8953,15179,0.114,551
2020-05-01T12:24:25,42.805,6.029,CST-1368DR,6387,8953,15178,0.114,551
2020-05-01T12:27:27,42.805,6.029,CST-1368DR,6387,8953,15179,0.114,551
2020-05-01T12:30:28,42.805,6.029,CST-1368DR,6387,8952,15178,0.114,551
2020-05-01T12:33:30,42.805,6.029,CST-1368DR,6387,8953,15178,0.114,551
2020-05-01T12:36:32,42.805,6.029,CST-1368DR,6387,8952,15178,0.114,551
2020-05-01T12:39:33,42.805,6.029,CST-1368DR,6387,8953,15178,0.114,551
2020-05-01T12:42:35,42.805,6.029,CST-1368DR,6387,8953,15179,0.114,551
2020-05-01T12:45:37,42.805,6.029,CST-1368DR,6387,8952,15178,0.114,551
2020-05-01T12:48:38,42.805,6.029,CST-1368DR,6387,8953,15179,0.114,551
2020-05-01T12:51:40,42.805,6.029,CST-1368DR,6387,8952,15178,0.114,551
2020-05-01T12:54:42,42.805,6.029,CST-1368DR,6387,8952,15178,0.114,551
2020-05-01T12:57:44,42.805,6.029,CST-1368DR,6387,8953,15179,0.114,551
2020-05-01T13:00:45,42.805,6.029,CST-1368DR,6387,8952,15176,0.114,551
2020-05-01T13:03:47,42.805,6.029,CST-1368DR,6387,8953,15179,0.114,551
2020-05-01T13:06:49,42.805,6.029,CST-1368DR,6386,8952,15180,0.113,551
2020-05-01T13:09:50,42.805,6.029,CST-1368DR,6387,8953,15179,0.114,551
2020-05-01T13:12:52,42.805,6.029,CST-1368DR,6387,8953,15179,0.114,551
2020-05-01T13:15:54,42.805,6.029,CST-1368DR,6387,8953,15179,0.114,551
2020-05-01T13:18:55,42.805,6.029,CST-1368DR,6386,8953,15180,0.113,551
2020-05-01T13:21:57,42.805,6.029,CST-1368DR,6387,8952,15178,0.114,551
2020-05-01T13:24:59,42.805,6.029,CST-1368DR,6387,8952,15176,0.114,551
2020-05-01T13:28:01,42.805,6.029,CST-1368DR,6386,8952,15180,0.113,551
2020-05-01T13:31:02,42.805,6.029,CST-1368DR,6386,8952,15179,0.114,551
2020-05-01T13:34:04,42.805,6.029,CST-1368DR,6386,8952,15179,0.114,551
2020-05-01T13:37:06,42.805,6.029,CST-1368DR,6386,8952,15180,0.113,551
2020-05-01T13:40:07,42.805,6.029,CST-1368DR,6386,8952,15180,0.113,551
2020-05-01T13:43:09,42.805,6.029,CST-1368DR,6386,8952,15179,0.114,551
2020-05-01T13:46:11,42.805,6.029,CST-1368DR,6386,8951,15178,0.114,551
2020-05-01T13:49:12,42.805,6.029,CST-1368DR,6386,8951,15178,0.114,551
2020-05-01T13:52:14,42.805,6.029,CST-1368DR,6386,8952,15179,0.114,551
2020-05-01T13:55:16,42.805,6.029,CST-1368DR,6386,8952,15180,0.113,551
2020-05-01T13:58:18,42.805,6.029,CST-1368DR,6386,8952,15180,0.113,551
2020-05-01T14:01:19,42.805,6.029,CST-1368DR,6386,8952,15180,0.113,551
2020-05-01T14:04:21,42.805,6.029,CST-1368DR,6386,8952,15180,0.113,551
2020-05-01T14:07:23,42.805,6.029,CST-1368DR,6386,8953,15180,0.113,551
2020-05-01T14:10:24,42.805,6.029,CST-1368DR,6386,8951,15178,0.114,551
2020-05-01T14:13:26,42.805,6.029,CST-1368DR,6386,8952,15180,0.113,551
2020-05-01T14:16:28,42.805,6.029,CST-1368DR,6386,8952,15180,0.113,551
2020-05-01T14:19:29,42.805,6.029,CST-1368DR,6386,8952,15179,0.114,551
2020-05-01T14:22:31,42.805,6.029,CST-1368DR,6386,8952,15179,0.114,551
2020-05-01T14:25:33,42.805,6.029,CST-1368DR,6386,8952,15179,0.114,551
2020-05-01T14:28:34,42.805,6.029,CST-1368DR,6386,8951,15178,0.114,551
2020-05-01T14:31:36,42.805,6.029,CST-1368DR,6386,8951,15178,0.114,551
2020-05-01T14:34:38,42.805,6.029,CST-1368DR,6386,8951,15178,0.114,551
2020-05-01T14:37:39,42.805,6.029,CST-1368DR,6386,8952,15179,0.114,551
2020-05-01T14:40:41,42.805,6.029,CST-1368DR,6386,8952,15180,0.113,551
2020-05-01T14:43:43,42.805,6.029,CST-1368DR,6386,8952,15179,0.114,551
2020-05-01T14:46:44,42.805,6.029,CST-1368DR,6386,8950,15176,0.114,551
2020-05-01T14:49:46,42.805,6.029,CST-1368DR,6386,8953,15181,0.113,551
2020-05-01T14:52:48,42.805,6.029,CST-1368DR,6386,8952,15180,0.113,551
2020-05-01T14:55:49,42.805,6.029,CST-1368DR,6386,8952,15180,0.113,551
2020-05-01T14:58:51,42.805,6.029,CST-1368DR,6386,8949,15175,0.115,551
2020-05-01T15:01:53,42.805,6.029,CST-1368DR,6386,8952,15180,0.113,551
2020-05-01T15:04:54,42.805,6.029,CST-1368DR,6386,8952,15180,0.113,551
2020-05-01T15:07:56,42.805,6.029,CST-1368DR,6386,8952,15180,0.113,551
2020-05-01T15:10:58,42.805,6.029,CST-1368DR,6386,8951,15178,0.114,551
2020-05-01T15:13:59,42.805,6.029,CST-1368DR,6386,8951,15178,0.114,551
2020-05-01T15:17:01,42.805,6.029,CST-1368DR,6386,8952,15180,0.113,551
2020-05-01T15:20:03,42.805,6.029,CST-1368DR,6386,8949,15174,0.115,551
2020-05-01T15:23:04,42.805,6.029,CST-1368DR,6386,8953,15181,0.113,551
2020-05-01T15:26:06,42.805,6.029,CST-1368DR,6386,8952,15179,0.114,551
2020-05-01T15:29:08,42.805,6.029,CST-1368DR,6386,8952,15179,0.114,551
2020-05-01T15:32:09,42.805,6.029,CST-1368DR,6386,8952,15179,0.114,551
2020-05-01T15:35:11,42.805,6.029,CST-1368DR,6386,8952,15179,0.114,551
2020-05-01T15:38:13,42.805,6.029,CST-1368DR,6386,8952,15180,0.113,551
2020-05-01T15:41:14,42.805,6.029,CST-1368DR,6386,8953,15181,0.113,551
2020-05-01T15:44:16,42.805,6.029,CST-1368DR,6386,8952,15179,0.114,551
2020-05-01T15:47:18,42.805,6.029,CST-1368DR,6386,8952,15179,0.114,551
2020-05-01T15:50:19,42.805,6.029,CST-1368DR,6386,8951,15177,0.114,551
2020-05-01T15:53:21,42.805,6.029,CST-1368DR,6386,8951,15178,0.114,551
2020-05-01T15:56:23,42.805,6.029,CST-1368DR,6386,8952,15180,0.113,551
2020-05-01T15:59:24,42.805,6.029,CST-1368DR,6386,8952,15179,0.114,551
2020-05-01T16:02:26,42.805,6.029,CST-1368DR,6386,8951,15178,0.114,551
2020-05-01T16:05:28,42.805,6.029,CST-1368DR,6386,8951,15178,0.114,551
2020-05-01T16:08:29,42.805,6.029,CST-1368DR,6386,8951,15177,0.114,551
2020-05-01T16:11:31,42.805,6.029,CST-1368DR,6386,8952,15180,0.113,551
2020-05-01T16:14:33,42.805,6.029,CST-1368DR,6386,8949,15175,0.115,551
2020-05-01T16:17:34,42.805,6.029,CST-1368DR,6386,8951,15178,0.114,551
2020-05-01T16:20:36,42.805,6.029,CST-1368DR,6386,8946,15169,0.116,551
2020-05-01T16:23:38,42.805,6.029,CST-1368DR,6386,8951,15177,0.114,551
2020-05-01T16:26:40,42.805,6.029,CST-1368DR,6386,8952,15179,0.114,551
2020-05-01T16:29:41,42.805,6.029,CST-1368DR,6386,8949,15174,0.115,551
2020-05-01T16:32:43,42.805,6.029,CST-1368DR,6386,8951,15178,0.114,551
2020-05-01T16:35:45,42.805,6.029,CST-1368DR,6386,8952,15179,0.114,551
2020-05-01T16:38:46,42.805,6.029,CST-1368DR,6386,8950,15175,0.115,551
2020-05-01T16:41:48,42.805,6.029,CST-1368DR,6386,8950,15176,0.114,551
2020-05-01T16:44:50,42.805,6.029,CST-1368DR,6386,8951,15177,0.114,551
2020-05-01T16:47:51,42.805,6.029,CST-1368DR,6386,8951,15178,0.114,551
2020-05-01T16:50:53,42.805,6.029,CST-1368DR,6386,8950,15177,0.114,551
2020-05-01T16:53:55,42.805,6.029,CST-1368DR,6386,8951,15177,0.114,551